Find Starlink 32278

NORAD ID: 60356 Int'l Des: 2024-138 Owner: SPXS Country: US Constellation: starlink operational
LEOCIRCULAR

当前视图

正在加载3D地球...

About Starlink 32278

Starlink 32278 (NORAD 60356) is a starlink constellation satellite (v2 mini) launched Aug 4, 2024 by SPXS of US. It operates in LEO, CIRCULAR orbit with a mass of 730.00 kg.

关于 Starlink 32278

正在加载描述...

即将过境

Passes for default location (London). Set your location on the main map for personalized predictions.

高度历史

Loading altitude history...

两行轨道根数

1 60356U 24138B 26195.40588842 -.00001872 00000-0 -51130-4 0 9994
2 60356 53.1595 81.3512 0001156 117.4638 242.6480 15.30180423110020
Epoch: Jul 14, 2026 • Age: 12 hours

当前状态

高度 486.9 km
远地点 / 近地点 N/A
速度 7.62 km/s
星下点 -34.33°S, 144.27°E
发射日期 Aug 4, 2024
运行时间 1.9 years
类型 internet

技术详情

分类 Payload
质量 730.00 kg
干质量 700.00 kg
总质量 730.00 kg
长度 0.30 m
直径 4.10 m
跨度 29.00 m
形状 Box + pan
制造商 SPXS
平台类型 Starlink V2M
阶段状态 In Orbit
所有者/国家 SPXS/US

Most Searched